Track STARLINK-3961 now! 10-day predictions STARLINK-3961 is classified as:
1 52637U 22052AR 22180.58334491 .00060811 00000-0 43545-3 0 9994 2 52637 53.2128 213.1891 0003100 18.0693 203.8193 15.73148628 1307